Location: Asheville, NC
(35.6000°N, 82.5500°W)
Time: 11:54:27

NUDT-PHONESAT - Pass Details

Date: 04 January 2018
Orbit: 494 x 512 km, 97.4° (Epoch: 19 March)

Event Time Altitude Azimuth Distance (km) Brightness Sun altitude
Rises 17:45:51 0° 154° (SSE) 2,602 ? -3.6°
Reaches altitude 10° 17:47:58 10° 148° (SSE) 1,723 ? -4.0°
Maximum altitude 17:51:32 46° 75° (ENE) 695 ? -4.7°
Drops below altitude 10° 17:55:09 10° 1° (N) 1,742 ? -5.3°
Sets 17:57:13 0° 356° (N) 2,599 ? -5.7°
